User: anonymous   Login
Location: Unspecified
(0.0000°N, 0.0000°E)
Time: 21:22:26
(UTC+00:00)
Language:

SHIYAN 30-03 - Orbit

View from above orbital plane
View from above orbital plane
View from above satellite
View from above satellite

Ground track
Ground track

The orbit is defined by the following mean orbital elements,

1 68139U          26145.73963559 +.00000000 +00000-0 +18308-3 0 00008
2 68139  35.0011  42.3849 0004309 166.9666 193.1151 14.91734324    04
Epoch (UTC): 25 May 2026 17:45:04
Eccentricity: 0.0004309
inclination: 35.0011°
perigee height: 590 km
apogee height: 596 km
right ascension of ascending node: 42.3849°
argument of perigee: 166.9666°
revolutions per day: 14.91734324
mean anomaly at epoch: 193.1151°

The dashed part of the orbit path shows where the satellite is in the earth's shadow,  

DLR